TimeEDT,TemperatureF,Dew PointF,Humidity,Sea Level PressureIn,VisibilityMPH,Wind Direction,Wind SpeedMPH,Gust SpeedMPH,PrecipitationIn,Events,Conditions,WindDirDegrees,DateUTC
12:10 AM,75.2,71.6,89,29.99,10.0,NW,3.5,-,N/A,,Overcast,310,2013-04-05 04:10:00
12:16 AM,75.2,71.6,89,29.98,9.0,Calm,Calm,-,0.00,Rain,Light Rain,0,2013-04-05 04:16:00
12:53 AM,73.9,71.1,91,29.98,10.0,NW,4.6,-,0.00,,Overcast,320,2013-04-05 04:53:00
1:24 AM,75.2,71.6,89,29.96,10.0,Variable,3.5,-,0.00,,Mostly Cloudy,0,2013-04-05 05:24:00
1:47 AM,73.4,71.6,94,29.94,10.0,NW,11.5,16.1,0.01,,Mostly Cloudy,320,2013-04-05 05:47:00
1:53 AM,72.0,70.0,93,29.94,10.0,NW,11.5,-,0.01,,Mostly Cloudy,310,2013-04-05 05:53:00
2:11 AM,69.8,68.0,94,29.95,1.5,WNW,15.0,26.5,0.23,Rain,Heavy Rain,300,2013-04-05 06:11:00
2:16 AM,68.0,66.2,94,29.94,0.5,NW,16.1,26.5,0.53,Fog-Rain,Heavy Rain,310,2013-04-05 06:16:00
2:19 AM,66.2,64.4,94,29.95,0.2,NW,16.1,26.5,0.68,Fog-Rain,Heavy Rain,320,2013-04-05 06:19:00
2:22 AM,66.2,64.4,94,29.94,1.5,NNW,19.6,27.6,0.71,Rain,Heavy Rain,330,2013-04-05 06:22:00
2:26 AM,66.2,64.4,94,29.93,3.0,NNW,16.1,27.6,0.72,Rain-Thunderstorm,Thunderstorms and Rain,340,2013-04-05 06:26:00
2:53 AM,68.0,64.0,87,29.97,8.0,South,12.7,-,0.76,Rain-Thunderstorm,Light Thunderstorms and Rain,170,2013-04-05 06:53:00
3:00 AM,66.2,64.4,94,29.99,2.5,SSE,10.4,-,0.08,Rain-Thunderstorm,Thunderstorms and Rain,160,2013-04-05 07:00:00
3:10 AM,66.2,64.4,94,29.98,2.5,Variable,3.5,-,0.15,Rain-Thunderstorm,Thunderstorms and Rain,0,2013-04-05 07:10:00
3:24 AM,66.2,64.4,94,29.95,6.0,East,4.6,-,0.27,Rain-Thunderstorm,Thunderstorms and Rain,90,2013-04-05 07:24:00
3:53 AM,66.9,64.9,93,29.97,10.0,SSW,3.5,-,0.27,Rain-Thunderstorm,Light Thunderstorms and Rain,200,2013-04-05 07:53:00
4:12 AM,66.2,64.4,94,29.97,10.0,SW,3.5,-,0.01,Rain,Light Rain,220,2013-04-05 08:12:00
4:53 AM,66.9,64.9,93,29.98,2.5,Calm,Calm,-,0.12,Rain,Rain,0,2013-04-05 08:53:00
5:04 AM,66.2,64.4,94,29.97,3.0,WNW,5.8,-,0.06,Rain,Rain,290,2013-04-05 09:04:00
5:53 AM,66.9,64.9,93,29.95,7.0,SSE,3.5,-,0.11,Rain,Light Rain,160,2013-04-05 09:53:00
6:53 AM,66.9,64.9,93,29.95,6.0,SW,4.6,-,0.03,Rain,Rain,230,2013-04-05 10:53:00
7:53 AM,66.9,64.9,93,29.91,10.0,SSE,6.9,-,0.16,Rain,Light Rain,150,2013-04-05 11:53:00
8:53 AM,70.0,64.9,84,29.89,10.0,SSE,12.7,-,0.00,,Mostly Cloudy,150,2013-04-05 12:53:00
9:53 AM,73.0,66.0,79,29.93,10.0,South,5.8,-,N/A,,Clear,190,2013-04-05 13:53:00
10:53 AM,73.0,68.0,84,29.95,10.0,NW,6.9,-,0.00,,Mostly Cloudy,310,2013-04-05 14:53:00
11:23 AM,73.4,66.2,78,29.96,10.0,WNW,9.2,-,N/A,,Mostly Cloudy,300,2013-04-05 15:23:00
11:38 AM,71.6,66.2,83,29.96,10.0,WNW,5.8,-,0.00,Rain,Light Rain,290,2013-04-05 15:38:00
11:53 AM,72.0,66.0,81,29.95,10.0,WNW,5.8,-,0.00,Rain,Light Rain,290,2013-04-05 15:53:00
12:53 PM,73.0,66.0,79,29.91,7.0,West,4.6,-,0.01,Rain,Light Rain,260,2013-04-05 16:53:00
1:53 PM,72.0,66.0,81,29.90,10.0,SW,9.2,-,0.01,,Mostly Cloudy,220,2013-04-05 17:53:00
2:53 PM,71.1,64.9,81,29.90,10.0,West,16.1,21.9,0.00,Rain,Light Rain,260,2013-04-05 18:53:00
3:53 PM,66.9,64.0,90,29.89,3.0,WSW,12.7,19.6,0.14,Rain,Rain,240,2013-04-05 19:53:00
4:53 PM,66.9,64.9,93,29.88,8.0,SW,10.4,-,0.06,Rain,Light Rain,220,2013-04-05 20:53:00
5:53 PM,66.0,64.0,93,29.85,5.0,WSW,4.6,-,0.12,Rain,Light Rain,240,2013-04-05 21:53:00
6:53 PM,66.9,64.9,93,29.84,10.0,West,4.6,-,0.02,,Scattered Clouds,280,2013-04-05 22:53:00
7:53 PM,66.9,64.0,90,29.85,10.0,West,6.9,-,N/A,,Scattered Clouds,270,2013-04-05 23:53:00
8:53 PM,66.9,64.0,90,29.88,10.0,West,8.1,-,N/A,,Partly Cloudy,260,2013-04-06 00:53:00
9:53 PM,66.9,64.9,93,29.90,10.0,WSW,4.6,-,N/A,,Partly Cloudy,240,2013-04-06 01:53:00
10:53 PM,66.9,66.0,97,29.92,10.0,WSW,6.9,-,N/A,,Overcast,250,2013-04-06 02:53:00
11:53 PM,68.0,64.9,90,29.93,10.0,West,5.8,-,N/A,,Mostly Cloudy,280,2013-04-06 03:53:00